Flag for Australia Weather past 2 weeks in Port Hedland, Western Australia, Australia

Now
81 °F

Clear.


Feels Like: 86 °F
Forecast: 81 / 92 °F
Wind: 8 mph from Southwest

Location: Port Hedland Pardoo

Current Time: Apr 1, 2015 at 2:53:09 AM

Latest Report: Apr 1, 2015 at 2:00 AM


Visibility: N/A

Pressure: 29.89 "Hg

Humidity: 84%

Dew point: 75 °F

Location of Port HedlandLocation

Historic Weather in Port Hedland — Graph

°F

Port Hedland temperature yesterday

Maximum temperature yesterday: 99 °F (at 11:00 AM)
Minimum temperature yesterday: 81 °F (at 12:00 AM)
Average temperature yesterday: 88 °F

Past Weeks' High & Low Weather Summary

 TemperatureHumidityPressure
High106 °F (Mar 21, 11:00 AM)94% (Mar 17, 4:00 AM)29.98 "Hg (Mar 17, 4:00 AM)
Low73 °F (Mar 20, 5:00 AM)15% (Mar 21, 11:00 AM)29.74 "Hg (Mar 17, 1:30 PM)
Average88 °F58%29.86 "Hg
* Reported Mar 17 1:00 AM — Apr 1 1:00 AM, Port Hedland, Weather by CustomWeather, © 2015

Note: Actual official high and low records may vary slightly from our data, if they occured in-between our weather recording intervals... More about our weather records

Advertising

Port Hedland weather history for previous 24 hours

 ConditionsComfort  
Time TempWeatherWind HumidityBarometerVisibility
1:00 AM
Wed, Apr 1
81 °FClear.7 mph79%29.92 "HgN/A
12:30 AM81 °FClear.7 mph79%29.92 "HgN/A
12:00 AM81 °FClear.7 mph79%29.92 "HgN/A
11:30 PM
Tue, Mar 31
81 °FClear.6 mph79%29.92 "HgN/A
11:00 PM82 °FClear.6 mph74%29.92 "HgN/A
10:30 PM82 °FClear.7 mph70%29.92 "HgN/A
10:00 PM82 °FClear.6 mph70%29.95 "HgN/A
9:30 PM84 °FClear.7 mph66%29.95 "HgN/A
9:00 PM84 °FClear.9 mph66%29.95 "HgN/A
8:00 PM86 °FClear.9 mph62%29.92 "HgN/A
7:00 PM88 °FClear.13 mph62%29.89 "HgN/A
6:00 PM90 °FClear.15 mph52%29.86 "HgN/A
5:30 PM91 °FClear.15 mph46%29.86 "HgN/A
5:00 PM93 °FSunny.16 mph41%29.86 "HgN/A
4:00 PM95 °FSunny.16 mph39%29.86 "HgN/A
3:30 PM97 °FSunny.15 mph39%29.86 "HgN/A
3:00 PM97 °FSunny.15 mph37%29.86 "Hg10 mi
2:30 PM99 °FSunny.14 mph35%29.86 "Hg10 mi
2:00 PM99 °FSunny.13 mph35%29.86 "HgN/A
1:30 PM97 °FSunny.14 mph39%29.86 "Hg10 mi
1:00 PM97 °FSunny.15 mph39%29.89 "Hg10 mi
12:30 PM99 °FSunny.15 mph39%29.89 "Hg10 mi
12:00 PM99 °FSunny.14 mph39%29.89 "Hg10 mi
11:30 AM97 °FSunny.12 mph44%29.92 "Hg10 mi
11:00 AM99 °FSunny.8 mph37%29.95 "Hg10 mi
10:30 AM95 °FScattered clouds.8 mph41%29.95 "HgN/A
10:00 AM95 °FScattered clouds.8 mph44%29.95 "Hg10 mi
9:30 AM91 °FScattered clouds.8 mph56%29.95 "HgN/A
9:00 AM90 °FScattered clouds.6 mph59%29.95 "HgN/A
8:30 AM88 °FSunny.6 mph70%29.95 "HgN/A
8:00 AM86 °FSunny.6 mph75%29.95 "Hg10 mi
7:30 AM84 °FSunny.6 mph74%29.95 "Hg10 mi
7:00 AM82 °FSunny.6 mph79%29.95 "Hg10 mi
6:30 AM81 °FSunny.6 mph84%29.95 "Hg10 mi
6:00 AM81 °FSunny.6 mph84%29.95 "Hg10 mi
5:30 AM81 °FSunny.6 mph84%29.95 "HgN/A
5:00 AM81 °FClear.5 mph84%29.95 "HgN/A
4:30 AM81 °FClear.5 mph84%29.95 "HgN/A
4:00 AM81 °FClear.5 mph84%29.92 "HgN/A
3:00 AM81 °FClear.5 mph84%29.92 "HgN/A
2:30 AM81 °FClear.3 mph84%29.92 "HgN/A
2:00 AM81 °FClear.5 mph84%29.92 "HgN/A
Weather by CustomWeather, © 2015

See weather overviewHow to use our weather pages